G7NPW-1 Weather Reports


time (UTC)temp
C
wind
direction
speed
KPH
gust
KPH
rain 1hr
cm
rain 24hr
cm
rain mn
cm
humidity
%
barometer
mb
20260902144004 17 170 19.3 19.3 0.00 0.00 0.00 93 1014.9
20260902143504 17 170 19.3 19.3 0.00 0.00 0.00 93 1014.9
20260902143004 17 170 19.3 19.3 0.00 0.00 0.00 93 1014.9
20260902142004 17 170 19.3 19.3 0.00 0.00 0.00 93 1014.9
20260902140504 17 170 19.3 22.5 0.00 0.00 0.00 93 1014.9
20260902140004 17 170 19.3 22.5 0.00 0.00 0.00 93 1014.9
20260902134504 17 180 22.5 22.5 0.00 0.00 0.00 77 1014.9
20260902133004 17 180 22.5 22.5 0.00 0.00 0.00 77 1014.9
20260902132004 17 180 22.5 22.5 0.00 0.00 0.00 77 1014.9
20260902131504 17 180 22.5 22.5 0.00 0.00 0.00 77 1014.9
20260902130504 17 180 22.5 24.1 0.00 0.00 0.00 77 1014.9
20260902130004 17 180 22.5 24.1 0.00 0.00 0.00 77 1014.9
20260902125004 17 210 24.1 24.1 0.00 0.00 0.00 77 1015.9
20260902124504 17 210 24.1 24.1 0.00 0.00 0.00 77 1015.9
20260902122004 17 210 24.1 24.1 0.00 0.00 0.00 77 1015.9
20260902115504 17 190 20.9 20.9 0.00 0.00 0.00 82 1016.9
20260902115004 17 190 20.9 20.9 0.00 0.00 0.00 82 1016.9
20260902111504 17 190 20.9 20.9 0.00 0.00 0.00 82 1016.9
20260902111003 17 190 20.9 20.9 0.00 0.00 0.00 82 1016.9
20260902110005 17 190 20.9 20.9 0.00 0.00 0.00 82 1016.9
20260902104004 17 190 14.5 14.5 0.00 0.00 0.00 88 1016.9
20260902100004 17 190 14.5 14.5 0.00 0.00 0.00 88 1016.9
20260902095504 16 200 14.5 14.5 0.00 0.00 0.00 87 1017.9
20260902095004 16 200 14.5 14.5 0.00 0.00 0.00 87 1017.9
20260902094504 16 200 14.5 14.5 0.00 0.00 0.00 87 1017.9
20260902091504 16 200 14.5 14.5 0.00 0.00 0.00 87 1017.9
20260902090504 16 200 14.5 14.5 0.00 0.00 0.00 87 1017.9
20260902090005 16 200 14.5 14.5 0.00 0.00 0.00 87 1017.9
20260902085504 15 200 14.5 14.5 0.00 0.00 0.00 93 1017.9
20260902085004 15 200 14.5 14.5 0.00 0.00 0.00 93 1017.9
20260902084504 15 200 14.5 14.5 0.00 0.00 0.00 93 1017.9
20260902082004 15 200 14.5 14.5 0.00 0.00 0.00 93 1017.9
20260902080004 15 200 14.5 14.5 0.00 0.00 0.00 93 1017.9
20260902075504 15 220 14.5 14.5 0.00 0.00 0.00 87 1016.9
20260902075004 15 220 14.5 14.5 0.00 0.00 0.00 87 1016.9
20260902074004 15 220 14.5 14.5 0.00 0.00 0.00 87 1016.9
20260902073004 15 220 14.5 14.5 0.00 0.00 0.00 87 1016.9
20260902072504 15 220 14.5 14.5 0.00 0.00 0.00 87 1016.9
20260902072004 15 220 14.5 14.5 0.00 0.00 0.00 87 1016.9
20260902071504 15 220 14.5 14.5 0.00 0.00 0.00 87 1016.9
20260902070504 15 220 14.5 14.5 0.00 0.00 0.00 87 1016.9
20260902070006 15 220 14.5 14.5 0.00 0.00 0.00 87 1016.9
20260902065505 17 230 12.9 12.9 0.00 0.00 0.00 77 1017.9
20260902063504 17 230 12.9 12.9 0.00 0.00 0.00 77 1017.9
20260902062004 17 230 12.9 12.9 0.00 0.00 0.00 77 1017.9
20260902061504 17 230 12.9 12.9 0.00 0.00 0.00 77 1017.9
20260902060504 17 230 12.9 12.9 0.00 0.00 0.00 77 1017.9
20260901204004 17 220 19.3 19.3 0.00 0.00 0.00 77 1017.9
20260901203004 17 220 19.3 19.3 0.00 0.00 0.00 77 1017.9
20260901202004 17 220 19.3 19.3 0.00 0.00 0.00 77 1017.9
20260901200504 17 220 19.3 19.3 0.00 0.00 0.00 77 1017.9
20260901194504 18 230 14.5 14.5 0.00 0.00 0.00 63 1017.9
20260901193504 18 230 14.5 14.5 0.00 0.00 0.00 63 1017.9
20260901193004 18 230 14.5 14.5 0.00 0.00 0.00 63 1017.9
20260901191504 18 230 14.5 14.5 0.00 0.00 0.00 63 1017.9
20260901190004 18 230 14.5 16.1 0.00 0.00 0.00 63 1017.9
20260901185504 18 220 16.1 16.1 0.00 0.00 0.00 59 1017.9
20260901184003 18 220 16.1 16.1 0.00 0.00 0.00 59 1017.9
20260901183004 18 220 16.1 16.1 0.00 0.00 0.00 59 1017.9
20260901182504 18 220 16.1 16.1 0.00 0.00 0.00 59 1017.9
20260901182004 18 220 16.1 16.1 0.00 0.00 0.00 59 1017.9
20260901181504 18 220 16.1 16.1 0.00 0.00 0.00 59 1017.9
20260901180503 18 220 16.1 25.7 0.00 0.00 0.00 59 1017.9
20260901180004 18 220 16.1 25.7 0.00 0.00 0.00 59 1017.9
20260901175004 21 240 25.7 25.7 0.00 0.00 0.00 52 1017.9
20260901174006 21 240 25.7 25.7 0.00 0.00 0.00 52 1017.9
20260901173504 21 240 25.7 25.7 0.00 0.00 0.00 52 1017.9
20260901170504 21 240 25.7 25.7 0.00 0.00 0.00 52 1017.9
20260901170004 21 240 25.7 25.7 0.00 0.00 0.00 52 1017.9
20260901164504 21 250 24.1 24.1 0.00 0.00 0.00 49 1017.9
20260901163504 21 250 24.1 24.1 0.00 0.00 0.00 49 1017.9
20260901161004 21 250 24.1 24.1 0.00 0.00 0.00 49 1017.9
20260901155504 21 250 24.1 24.1 0.00 0.00 0.00 49 1017.9
20260901155004 21 250 24.1 24.1 0.00 0.00 0.00 49 1017.9
20260901152004 21 250 24.1 24.1 0.00 0.00 0.00 49 1017.9
20260901151504 21 250 24.1 24.1 0.00 0.00 0.00 49 1017.9
20260901151004 21 250 24.1 24.1 0.00 0.00 0.00 49 1017.9
20260901150004 21 250 24.1 29.0 0.00 0.00 0.00 49 1017.9